Flag for United Arab Emirates Weather past 2 weeks in Abu Dhabi, Abu Dhabi, United Arab Emirates

Now
88 °F

Clear.


Feels Like: 102 °F
Forecast: 90 / 102 °F
Wind: 3 mph from Southeast

Location: Abu Dhabi Bateen Airport

Current Time: Aug 2, 2014 at 7:10:38 AM

Latest Report: Aug 2, 2014 at 6:00 AM


Visibility: 5 mi

Pressure: 29.42 "Hg

Humidity: 75%

Dew point: 79 °F

Location of Abu DhabiLocation

Historic Weather in Abu Dhabi — Graph

°F

Abu Dhabi temperature yesterday

Maximum temperature yesterday: 104 °F (at 12:00 PM)
Minimum temperature yesterday: 86 °F (at 5:00 AM)
Average temperature yesterday: 95 °F

Past Weeks' High & Low Weather Summary

 TemperatureHumidityPressure
High113 °F (Jul 26, 2:00 PM)89% (Jul 19, 3:00 AM)29.56 "Hg (Jul 19, 3:00 AM)
Low86 °F (Jul 24, 7:00 AM)13% (Jul 26, 2:00 PM)29.33 "Hg (Jul 18, 4:00 PM)
Average96 °F57%29.43 "Hg
* Reported Jul 18 6:00 AM — Aug 2 6:00 AM, Abu Dhabi, Weather by CustomWeather, © 2014

Note: Actual official high and low records may vary slightly from our data, if they occured in-between our weather recording intervals... More about our weather records

Advertising

Abu Dhabi weather history for previous 24 hours

 ConditionsComfort  
Time TempWeatherWind HumidityBarometerVisibility
6:00 AM
Aug 2
88 °FClear.3 mph75%29.42 "Hg5 mi
5:00 AM88 °FClear.6 mph79%29.42 "Hg5 mi
4:00 AM88 °FClear.2 mph79%29.42 "Hg6 mi
3:00 AM90 °FClear.3 mph75%29.42 "Hg6 mi
2:00 AM90 °FClear.2 mph71%29.42 "Hg6 mi
1:00 AM90 °FClear.1 mph71%29.42 "Hg6 mi
12:00 AM90 °FClear.3 mph71%29.45 "Hg6 mi
11:00 PM
Aug 1
91 °FClear.1 mph67%29.45 "Hg10 mi
10:00 PM93 °FClear.1 mph59%29.45 "Hg10 mi
9:00 PM95 °FClear.2 mph56%29.45 "Hg10 mi
8:00 PM93 °FPassing clouds.6 mph63%29.42 "HgN/A
7:00 PM95 °FPassing clouds.8 mph53%29.42 "HgN/A
6:00 PM99 °FSunny.10 mph47%29.42 "Hg10 mi
5:00 PM100 °FSunny.12 mph45%29.39 "Hg10 mi
4:00 PM102 °FSunny.10 mph31%29.39 "Hg10 mi
3:00 PM104 °FPassing clouds.13 mph29%29.42 "HgN/A
2:00 PM104 °FPassing clouds.10 mph31%29.42 "HgN/A
1:00 PM104 °FPassing clouds.8 mph31%29.45 "HgN/A
12:00 PM104 °FPassing clouds.5 mph26%29.45 "HgN/A
11:00 AM100 °FPassing clouds.5 mph31%29.47 "HgN/A
10:00 AM95 °FClear.7 mph56%29.47 "Hg6 mi
9:00 AM95 °FPassing clouds.5 mph47%29.47 "HgN/A
8:00 AM93 °FClear.3 mph41%29.47 "Hg5 mi
7:00 AM88 °FClear.1 mph62%29.45 "Hg5 mi
Weather by CustomWeather, © 2014

See weather overviewHow to use our weather pages